Погода в Кене

Египет     26°09′31″N   32°43′16″E
темп.,
°C
ветер,
м/с
пор.,
м/с
влажн.,
%
обл.,
%
осадки,
мм/ч
давл.,
гПа
погр.,
м
7 мая, пт
пт723:00+32с34125 0.0 101138
02:00+30ссв46145 0.0 101162
05:00+29с33175 0.0 101128
08:00+34ссв35125 0.0 1013336
11:00+40ссв2471 0.0 10122046
14:00+43с5760 0.0 10094540
17:00+42ссз9868 0.0 10084502
20:00+37с71390 0.0 1010207
8 мая, сб
сб823:00+34с814130 0.0 1011234
02:00+30с33170 0.0 101139
05:00+28сз22220 0.0 101116
08:00+33с35175 0.0 1012481
11:00+40ссв4560 0.0 10101464
14:00+44с6830 0.0 10075065
17:00+42ссв8940 0.0 10074152
20:00+36ссв51060 0.0 1008116
9 мая, вс
вс923:00+33с5870 0.0 100985
02:00+31с5780 0.0 100866
05:00+29всв22100 0.0 100912
08:00+34всв2470 0.0 1010414
11:00+42всв6750 0.0 10092780
14:00+43в3640 0.0 10064539
17:00+42всв7650 0.0 10052422
20:00+34всв22866 0.0 100713
10 мая, пн
пн1023:00+33ссз33886 0.0 100714
02:00+31с4410100 0.0 100731
05:00+30ссв22146 0.0 100722
08:00+35вюв1392 0.0 1008346
11:00+41ююз4360 0.0 10071916
14:00+43зюз3551 0.0 10045349
17:00+41сз1110793 0.0 10041006
20:00+37св459100 0.0 100453
11 мая, вт
вт1123:00+34вюв331027 0.0 100515
02:00+30вюв11121 0.0 100411
05:00+28зсз3425100 0.0 100541
08:00+32сз342413 0.0 1006609
11:00+37сз33170 0.0 10061636
14:00+39зсз86135 0.0 10042086
17:00+37зсз8790 0.0 10041758
20:00+31сз58150 0.0 1006117